Temperature
21 21 21 21 20 19 19 19 19 19 19 19 18 18 18 19 19 19 19 19 18 18 18 18 18 18 18 18 18 18 18 18 18 18 18 18 18 19 19 19 19 19 19
21 21 21 20 20 20 20 19 19 19 19 19 19 18 18 18 19 19 19 18 18 18 18 18 18 18 18 18 18 17 17 18 18 17 17 17 18 19 19 19 18 18 18
21 21 21 21 21 21 20 20 20 20 19 19 18 18 18 18 18 18 18 18 18 17 17 17 17 17 17 17 17 17 17 17 17 17 16 16 16 17 17 17 17 17 18
21 21 21 22 22 21 21 21 20 20 19 19 18 18 17 17 16 16 16 17 17 17 17 16 16 16 16 16 16 16 16 16 16 16 16 16 15 15 16 17 17 17 17
21 22 22 22 22 22 21 20 20 20 19 19 18 17 17 16 16 16 16 16 16 16 16 16 16 16 16 16 16 16 16 16 16 16 15 15 15 15 15 15 16 16 16
22 23 23 22 22 21 21 20 20 19 19 18 18 17 16 16 16 16 16 16 16 16 16 16 16 15 15 15 15 15 15 15 15 15 15 15 15 15 15 15 15 16 16
23 23 23 22 22 21 21 20 20 19 18 18 17 16 16 15 15 15 15 15 15 15 15 15 15 15 15 15 15 15 15 15 15 15 15 15 14 15 15 15 15 15 16
23 23 23 22 22 21 20 20 19 19 18 17 17 16 16 15 15 14 14 14 14 14 14 14 15 15 15 15 15 15 15 14 14 14 14 14 14 14 15 15 15 15 15
23 23 23 22 22 21 21 20 19 18 18 17 16 16 15 15 14 14 13 13 13 13 13 13 14 14 14 14 14 14 14 14 14 14 14 13 14 14 14 14 14 14 14
23 22 22 22 21 21 20 20 19 18 17 16 16 15 15 14 13 13 13 12 12 12 12 13 13 13 14 14 14 14 13 13 14 13 13 13 13 13 14 14 14 14 14
22 22 22 22 21 21 20 20 19 18 17 16 15 15 14 14 13 13 12 12 12 12 12 12 12 13 13 13 13 13 13 13 13 13 13 13 13 13 13 13 14 14 14
21 21 21 21 21 21 20 20 19 18 17 16 15 15 14 14 13 12 12 12 12 12 12 12 12 12 13 13 13 13 13 13 13 12 13 13 13 13 13 13 13 13 14
19 20 20 20 21 20 20 20 19 18 17 16 15 15 14 14 13 13 12 12 12 12 12 12 12 12 12 13 13 13 12 12 12 12 12 12 13 13 13 13 13 13 13
17 18 18 19 19 20 20 19 19 18 17 16 15 15 14 14 13 13 12 12 12 12 12 12 12 12 12 12 12 12 12 12 12 12 12 12 13 13 13 13 13 13 13
15 16 16 17 17 18 18 19 19 18 17 16 16 15 15 14 14 13 13 12 12 12 12 12 12 12 12 11 11 11 11 12 12 12 12 12 12 12 12 12 13 13 13
14 15 16 16 16 16 17 17 18 18 17 16 16 15 14 14 14 13 13 12 12 12 11 12 12 11 11 11 11 11 11 11 12 12 12 12 12 12 12 12 12 12 12
13 14 15 15 15 15 15 15 16 17 17 16 16 15 14 14 13 13 13 12 12 11 11 12 12 11 11 11 11 11 11 11 12 12 12 12 12 12 11 11 11 12 12
12 12 13 13 14 14 14 14 15 15 16 16 16 15 14 14 13 13 13 12 12 11 11 12 12 12 11 11 11 11 11 11 11 11 11 12 11 11 11 11 11 11 11
12 12 12 12 12 13 12 13 13 13 14 14 15 15 14 14 13 13 13 12 11 11 11 12 12 11 11 11 11 11 11 11 11 11 11 12 12 11 11 11 11 11 11
11 11 12 11 11 11 11 11 11 12 12 12 12 13 14 14 13 13 13 12 12 11 12 12 11 11 11 11 11 11 11 11 11 11 11 11 11 11 11 11 11 11 11
10 10 11 11 11 11 11 10 10 10 10 10 11 12 12 13 13 13 13 12 12 11 12 12 12 11 11 11 11 11 11 11 11 11 11 11 11 11 11 11 11 10 10
10 10 10 10 10 10 10 10 10 10 10 10 10 10 11 12 13 13 12 12 12 11 12 12 12 12 12 12 11 11 11 11 11 11 11 11 10 10 10 10 9 9 9
10 10 10 10 10 10 9 9 9 9 9 9 9 9 9 11 12 13 12 12 12 12 12 12 11 12 12 12 12 11 12 11 11 11 11 10 10 9 9 9 9 9 9
10 10 10 9 9 10 9 9 9 9 9 9 9 8 8 10 11 12 12 12 12 12 12 11 11 11 11 12 12 12 11 11 11 10 10 10 9 9 9 9 9 8 8
9 9 9 9 9 9 9 9 9 9 9 8 8 8 8 9 10 11 12 12 12 12 12 12 12 11 11 11 12 12 11 11 11 10 10 10 9 9 9 9 9 8 8
9 9 9 9 9 9 9 9 9 9 9 8 8 7 8 8 9 11 12 12 12 12 12 12 12 12 12 12 11 11 11 11 11 10 10 10 9 9 9 9 9 8 8
Wind_Speed
4 3 5 5 4 3 2 1 2 3 2 1 1 2 4 4 5 6 6 7 8 8 7 7 8 9 10 11 10 7 7 7 4 3 5 6 10 13 13 11 10 11 10
4 2 2 2 2 1 1 2 4 4 4 4 4 4 4 5 5 6 7 8 8 7 7 8 7 7 7 8 8 7 5 5 6 5 3 4 5 7 10 10 10 10 9
9 7 5 4 3 3 5 5 6 7 7 6 4 3 3 4 4 6 6 8 7 7 8 8 8 8 8 8 10 9 8 7 7 7 5 4 6 4 4 4 5 5 5
9 8 8 8 8 8 8 8 8 8 8 7 5 6 5 6 7 6 7 9 9 10 9 9 9 9 8 9 9 9 8 8 7 5 6 5 4 3 4 4 3 4 3
11 11 11 11 10 10 8 7 7 7 7 6 5 4 4 4 5 6 8 9 9 10 10 9 9 9 9 9 9 8 9 8 7 6 4 5 5 6 5 5 4 3 3
11 12 12 10 8 6 5 5 4 4 4 3 2 1 1 3 5 7 8 9 9 10 11 10 9 9 9 10 10 9 9 8 8 7 6 5 4 5 5 6 3 3 3
10 10 10 9 7 6 6 4 4 4 3 4 4 4 3 2 3 5 8 10 10 11 12 11 9 9 9 9 8 8 8 8 7 7 6 5 5 4 4 3 2 1 2
9 9 9 8 7 7 7 5 6 5 5 5 4 4 4 2 2 4 6 9 10 11 12 11 9 9 8 7 7 6 7 7 8 8 7 5 5 4 3 3 3 2 2
8 7 6 7 8 8 7 8 8 7 6 5 4 4 3 2 2 4 6 7 8 9 10 9 7 5 4 4 5 4 6 6 7 7 7 5 3 2 2 2 3 4 2
4 6 7 8 8 8 7 8 8 7 5 5 5 4 4 2 1 3 6 8 9 9 10 9 5 3 1 2 3 3 3 4 3 3 5 4 2 2 2 3 3 3 4
4 5 7 8 8 7 7 8 7 5 5 6 6 5 4 3 2 3 5 6 7 8 9 9 8 5 3 1 0 1 2 3 3 3 4 5 5 4 3 4 4 3 3
5 6 7 7 8 8 7 7 7 6 7 7 6 6 5 4 4 4 6 6 7 7 7 8 8 6 5 5 4 4 3 4 4 5 6 7 7 6 5 5 5 4 3
11 9 6 6 8 8 7 7 7 8 8 7 7 6 6 6 6 6 6 6 7 7 7 7 7 7 6 7 6 7 6 7 7 8 9 8 9 9 7 7 6 5 6
16 17 13 9 8 7 7 7 8 9 9 8 8 8 8 8 7 6 6 6 6 6 7 6 6 6 6 6 8 9 9 8 8 8 9 8 8 8 8 7 7 8 9
15 16 15 14 12 9 8 8 9 9 9 8 8 9 8 8 7 6 6 5 5 5 5 3 5 6 5 5 8 8 9 9 10 10 10 10 11 11 8 7 7 8 7
11 11 12 13 15 14 12 10 9 9 8 8 9 8 8 8 8 7 6 4 4 3 0 3 5 5 4 6 10 9 9 9 11 10 9 9 9 11 14 15 13 10 7
10 11 10 10 11 13 14 14 12 8 7 9 9 9 9 9 8 7 6 5 3 3 4 4 5 5 5 8 11 11 9 9 9 9 9 9 9 11 10 13 13 12 12
11 8 7 8 7 9 12 14 14 11 8 8 8 9 10 9 8 8 7 6 4 5 5 4 5 6 7 13 14 14 11 10 8 8 9 9 9 8 10 10 10 9 8
10 10 9 7 6 7 9 11 13 13 10 7 7 9 11 11 10 9 8 6 5 5 5 5 6 7 7 13 14 13 9 8 7 7 8 10 10 13 15 12 10 10 9
12 11 10 8 6 6 6 8 9 10 12 13 12 8 9 11 12 10 8 6 6 6 7 6 6 7 6 10 14 13 8 8 6 6 7 11 12 14 14 11 10 10 7
16 14 13 9 7 6 4 5 6 7 8 12 15 13 9 11 11 9 7 7 7 8 8 7 5 5 6 8 12 14 8 8 7 6 4 5 13 14 14 12 8 7 6
16 14 12 9 8 7 4 3 4 5 6 8 12 15 13 11 11 10 9 9 10 10 8 7 5 3 4 6 9 15 13 11 8 7 5 5 11 13 12 10 11 13 10
14 12 10 10 10 8 7 7 6 6 5 6 8 11 15 11 9 11 11 9 10 9 8 7 7 5 4 4 8 14 17 14 7 6 9 8 10 10 7 10 12 10 7
15 13 11 11 11 10 10 10 9 7 5 6 7 8 12 12 10 10 11 11 11 11 10 9 8 6 5 5 5 7 10 11 8 7 7 7 6 6 5 7 7 5 6
16 15 14 14 14 12 11 11 10 9 7 7 7 8 9 11 11 12 12 14 13 14 12 11 11 11 9 10 14 12 9 8 8 7 4 2 2 3 3 4 4 4 5
19 18 18 17 15 13 11 11 11 10 8 7 7 8 8 9 9 11 10 14 13 18 19 18 15 13 14 18 18 17 17 16 16 8 4 3 3 4 5 5 3 3 5
Wind_Direction
121 90 79 75 70 63 78 178 209 206 188 208 241 255 258 261 271 269 266 273 271 258 243 243 240 229 227 227 220 214 214 220 187 207 264 265 249 248 249 246 243 245 244
145 173 117 75 62 39 127 192 210 215 207 206 214 221 239 259 262 271 278 277 275 267 253 243 242 236 233 229 219 211 213 215 187 196 220 281 298 259 248 248 247 249 247
175 187 187 208 214 217 208 205 215 217 212 211 220 258 286 296 296 294 292 288 283 277 267 251 245 240 229 232 229 219 215 225 217 204 193 205 241 294 292 260 257 270 257
169 175 187 198 203 209 206 203 210 213 216 211 211 227 248 268 274 282 286 292 289 282 272 263 252 243 232 230 231 224 219 217 226 215 214 214 198 227 300 309 303 298 274
176 186 197 202 206 204 201 206 211 216 220 217 220 239 263 274 292 307 307 305 300 291 281 271 261 248 234 226 224 223 217 212 213 206 196 217 228 223 231 273 300 316 285
196 204 213 213 219 219 216 215 208 219 216 190 158 134 330 337 338 331 325 318 310 300 289 278 264 248 235 226 224 224 220 215 212 205 192 186 196 206 212 228 250 288 299
220 227 232 233 238 231 229 226 200 207 185 136 121 113 103 60 349 327 323 317 310 300 290 280 265 251 237 227 217 210 213 208 202 198 195 195 206 200 191 181 187 327 337
244 243 238 229 222 216 216 208 200 208 192 164 147 129 116 96 351 328 320 314 309 301 293 281 265 250 236 223 212 210 212 210 212 210 202 200 214 200 175 157 145 108 24
252 235 203 183 187 195 201 201 205 213 203 180 149 132 122 88 358 331 325 323 322 319 320 310 286 260 233 215 200 208 214 213 216 213 205 199 192 171 161 149 139 133 108
203 177 177 183 192 199 206 206 211 211 200 178 166 163 160 156 282 326 328 326 326 334 342 345 340 324 272 214 199 209 212 194 191 182 173 161 134 130 144 140 129 133 136
207 216 215 206 201 202 201 203 209 203 196 191 185 179 182 184 229 294 308 314 321 336 348 353 358 355 346 336 187 201 177 143 111 96 127 126 119 122 129 122 125 126 120
298 272 242 215 209 210 207 201 201 203 211 205 194 195 191 193 224 265 288 305 318 330 344 353 1 11 28 42 58 67 78 89 97 103 103 107 110 99 91 89 90 95 105
350 336 300 246 232 225 215 203 204 211 216 206 196 193 194 203 225 249 273 296 310 326 343 355 6 20 37 49 60 80 90 94 97 102 104 105 103 92 87 84 84 81 82
19 11 359 329 288 251 224 212 215 215 213 204 195 193 199 203 218 238 257 277 298 320 337 350 9 24 36 62 81 97 99 95 91 89 88 86 92 96 92 85 84 90 91
24 18 11 359 345 313 276 243 229 221 212 204 199 200 199 200 208 225 241 257 280 303 329 26 40 37 40 79 105 109 105 98 89 79 73 69 77 83 84 87 84 89 93
18 11 8 3 354 342 319 289 258 236 214 206 206 198 194 201 207 213 219 234 263 286 122 114 86 57 53 99 114 118 107 103 95 87 75 67 63 78 78 78 76 84 95
7 4 2 359 357 352 347 332 303 269 224 211 204 193 194 203 207 201 197 200 200 159 139 135 118 91 75 110 121 117 113 107 97 89 82 76 66 72 79 72 66 61 64
340 335 330 330 335 342 345 345 339 315 267 225 204 194 193 202 202 194 191 181 166 158 152 155 130 95 77 99 111 107 100 97 95 99 101 92 72 73 83 72 57 43 34
305 297 287 284 304 327 337 344 352 343 321 286 241 206 195 198 198 195 191 177 162 164 163 161 140 111 93 102 111 109 102 99 89 88 91 95 85 80 81 76 64 47 29
302 299 298 282 292 306 331 353 355 1 353 339 316 269 206 196 199 194 184 169 162 169 163 162 154 135 121 113 119 120 118 109 97 77 72 82 91 84 82 80 74 61 35
294 295 299 285 275 285 316 346 350 352 343 340 340 318 254 207 199 186 175 165 161 160 165 161 160 152 142 127 137 142 138 136 126 113 97 88 98 95 90 86 80 82 83
293 294 294 283 278 277 275 288 294 295 320 343 344 330 292 233 204 182 176 169 166 167 167 160 160 162 153 145 158 164 159 151 141 144 146 136 120 111 101 88 91 89 82
294 291 282 280 282 279 265 260 257 263 296 325 326 321 310 261 211 186 179 171 172 172 170 166 169 175 174 174 169 167 162 155 142 153 161 160 137 109 87 83 92 90 86
288 283 276 278 278 274 260 246 243 244 264 288 296 301 307 279 229 196 182 179 179 177 174 173 175 172 169 168 151 142 149 148 133 138 163 163 135 96 88 80 82 88 104
281 280 278 277 275 274 267 256 245 236 241 261 276 280 285 279 240 208 194 188 189 185 178 181 178 176 181 188 169 156 156 158 154 139 116 104 104 105 91 91 94 94 96
277 277 277 275 274 272 266 262 249 235 230 244 265 272 277 280 249 216 202 202 189 186 182 178 176 188 182 170 171 167 167 166 155 135 137 163 182 172 158 153 144 120 113
Height
1509 1510 1510 1510 1511 1513 1515 1516 1516 1516 1515 1515 1514 1513 1512 1511 1510 1508 1507 1505 1504 1503 1502 1501 1499 1499 1499 1499 1499 1499 1499 1499 1499 1499 1498 1498 1497 1495 1494 1493 1492 1492 1493
1508 1510 1510 1511 1511 1512 1513 1514 1514 1513 1513 1512 1510 1509 1507 1505 1503 1502 1500 1498 1497 1496 1495 1494 1493 1492 1492 1492 1492 1492 1492 1493 1493 1493 1492 1491 1490 1487 1486 1485 1484 1484 1485
1507 1508 1510 1510 1510 1510 1510 1511 1511 1510 1509 1508 1506 1504 1502 1500 1498 1496 1494 1492 1490 1489 1487 1486 1485 1485 1485 1485 1485 1485 1485 1486 1486 1486 1487 1486 1484 1482 1480 1479 1479 1478 1478
1506 1507 1508 1507 1507 1507 1507 1507 1506 1505 1505 1503 1502 1500 1497 1495 1493 1490 1488 1485 1484 1482 1480 1478 1477 1477 1477 1476 1477 1477 1477 1477 1477 1478 1478 1480 1480 1480 1477 1477 1476 1475 1474
1505 1505 1505 1504 1504 1504 1503 1503 1501 1500 1499 1498 1497 1495 1493 1491 1488 1485 1482 1479 1477 1474 1472 1471 1469 1468 1468 1468 1469 1469 1469 1469 1470 1470 1472 1473 1474 1475 1474 1473 1472 1471 1471
1502 1501 1501 1500 1500 1501 1501 1500 1499 1497 1495 1494 1492 1491 1489 1486 1483 1480 1477 1473 1469 1465 1463 1462 1460 1459 1459 1460 1460 1461 1461 1461 1462 1463 1465 1467 1469 1469 1469 1469 1468 1468 1468
1499 1498 1498 1498 1498 1499 1498 1498 1496 1494 1492 1490 1489 1487 1485 1482 1479 1475 1471 1467 1462 1458 1454 1452 1451 1451 1451 1452 1453 1453 1454 1455 1456 1458 1460 1462 1464 1465 1465 1465 1464 1464 1466
1496 1496 1496 1496 1496 1496 1496 1495 1493 1491 1489 1487 1486 1484 1481 1478 1475 1471 1467 1462 1457 1452 1448 1445 1444 1444 1445 1445 1446 1447 1448 1449 1450 1452 1454 1457 1459 1461 1461 1461 1461 1463 1465
1493 1493 1492 1492 1493 1493 1493 1492 1490 1488 1486 1484 1483 1481 1478 1475 1472 1468 1463 1459 1454 1449 1445 1442 1440 1440 1441 1441 1441 1442 1443 1444 1445 1447 1450 1452 1455 1458 1459 1459 1460 1463 1464
1491 1491 1490 1490 1490 1490 1489 1488 1486 1484 1482 1481 1479 1477 1475 1472 1469 1465 1461 1457 1453 1449 1445 1441 1439 1438 1438 1438 1438 1438 1439 1440 1441 1443 1445 1448 1452 1455 1457 1458 1460 1462 1464
1492 1491 1490 1488 1488 1487 1486 1485 1483 1481 1479 1478 1476 1474 1472 1469 1467 1464 1460 1457 1454 1450 1446 1442 1440 1438 1437 1437 1436 1436 1437 1438 1439 1441 1443 1446 1450 1453 1456 1458 1460 1462 1463
1493 1491 1488 1486 1485 1484 1483 1482 1480 1478 1477 1475 1473 1471 1469 1467 1465 1463 1460 1457 1455 1451 1448 1445 1442 1439 1438 1437 1436 1435 1437 1438 1440 1442 1444 1447 1450 1453 1456 1458 1460 1461 1463
1491 1488 1486 1484 1483 1482 1480 1479 1477 1475 1473 1472 1470 1468 1467 1465 1463 1461 1459 1457 1455 1453 1450 1447 1444 1441 1440 1438 1437 1437 1438 1439 1442 1444 1446 1449 1452 1454 1456 1458 1460 1461 1463
1489 1486 1484 1483 1482 1480 1478 1475 1473 1470 1469 1468 1466 1465 1464 1463 1461 1459 1458 1457 1456 1454 1451 1449 1446 1444 1442 1441 1440 1440 1441 1443 1445 1447 1449 1452 1454 1455 1456 1458 1460 1462 1464
1489 1488 1486 1483 1480 1478 1476 1472 1469 1466 1464 1463 1462 1461 1460 1459 1458 1457 1457 1456 1456 1454 1453 1451 1449 1447 1446 1445 1444 1444 1445 1447 1449 1450 1452 1455 1456 1457 1458 1459 1461 1463 1464
1490 1487 1484 1482 1479 1476 1472 1469 1465 1462 1460 1459 1458 1457 1457 1456 1455 1454 1454 1455 1455 1455 1454 1453 1451 1450 1449 1449 1449 1449 1450 1452 1453 1454 1457 1459 1460 1460 1460 1461 1462 1464 1465
1488 1486 1483 1480 1476 1472 1468 1464 1462 1459 1456 1454 1453 1452 1453 1452 1451 1450 1451 1452 1453 1454 1454 1454 1453 1453 1453 1453 1454 1454 1455 1455 1457 1458 1460 1461 1461 1462 1462 1463 1464 1465 1466
1488 1484 1481 1477 1473 1469 1465 1460 1456 1454 1452 1450 1448 1447 1447 1447 1447 1446 1447 1448 1450 1452 1454 1454 1454 1454 1455 1456 1458 1458 1458 1459 1460 1461 1462 1462 1463 1464 1464 1464 1465 1466 1467
1486 1482 1478 1474 1469 1464 1460 1456 1451 1449 1447 1445 1444 1442 1442 1442 1442 1442 1443 1444 1447 1450 1452 1454 1454 1455 1456 1458 1459 1461 1461 1461 1461 1462 1462 1463 1464 1464 1464 1465 1466 1467 1468
1479 1476 1473 1468 1463 1459 1455 1452 1448 1444 1441 1439 1437 1437 1438 1437 1437 1438 1439 1441 1444 1448 1450 1452 1454 1455 1456 1458 1460 1461 1462 1463 1463 1463 1464 1465 1465 1465 1465 1466 1467 1468 1469
1473 1469 1466 1462 1457 1453 1449 1446 1444 1440 1436 1433 1429 1429 1431 1432 1432 1433 1435 1438 1442 1445 1448 1450 1453 1454 1456 1457 1459 1461 1462 1463 1464 1465 1465 1466 1466 1466 1466 1467 1468 1470 1471
1466 1463 1460 1456 1452 1448 1444 1440 1438 1435 1432 1427 1423 1422 1423 1425 1426 1428 1430 1433 1438 1441 1445 1448 1450 1452 1454 1456 1458 1460 1462 1463 1464 1465 1466 1466 1467 1467 1468 1469 1470 1471 1472
1460 1457 1453 1449 1445 1442 1439 1435 1432 1429 1425 1421 1417 1415 1414 1416 1419 1421 1423 1427 1432 1436 1440 1444 1447 1449 1451 1453 1456 1459 1461 1463 1464 1465 1466 1467 1468 1469 1470 1470 1471 1471 1471
1452 1448 1444 1440 1436 1434 1431 1428 1425 1422 1418 1414 1411 1408 1407 1407 1410 1413 1416 1420 1425 1430 1434 1438 1442 1445 1448 1450 1453 1456 1459 1462 1464 1465 1466 1468 1469 1470 1471 1471 1471 1471 1471
1443 1439 1435 1431 1427 1424 1422 1419 1417 1414 1410 1407 1404 1402 1401 1399 1400 1404 1408 1412 1417 1422 1427 1433 1437 1441 1443 1446 1450 1453 1457 1459 1462 1463 1465 1467 1469 1470 1471 1471 1472 1472 1472
1432 1429 1425 1421 1417 1414 1412 1410 1408 1405 1402 1399 1397 1395 1392 1391 1391 1394 1400 1405 1411 1416 1422 1428 1433 1437 1440 1444 1447 1451 1454 1457 1460 1462 1463 1466 1468 1470 1471 1471 1472 1472 1472